Location: Jackson Park
(37.2862°N, 79.9123°W)
Time: 12:25:37
(UTC+00:00)

Vanguard 1 - Visible Passes

Search period start: 13 May 2026 00:00
Search period end: 23 May 2026 00:00
Orbit: 654 x 3817 km, 34.2° (Epoch: 13 May)

Date Brightness Start Highest point End Pass type
(mag) Time Alt. Az. Time Alt. Az. Time Alt. Az.
13 May 12.5 01:42:29 10° W 01:56:44 73° SSW 02:14:12 21° ESE visible
13 May 12.9 04:04:50 10° W 04:22:05 46° SSW 04:26:42 43° S visible
13 May 13.8 06:33:51 10° W 06:39:11 15° WSW 06:39:11 15° WSW visible
14 May 12.5 02:01:53 10° W 02:16:25 67° SSW 02:31:33 26° SE visible
14 May 13.1 04:24:49 10° W 04:41:30 39° SW 04:44:02 38° SSW visible
15 May 12.6 02:21:20 10° W 02:36:03 60° SSW 02:48:59 30° SE visible
15 May 13.3 04:45:08 10° W 05:00:52 31° SW 05:01:28 31° SW visible
16 May 12.2 00:19:53 10° W 00:31:06 75° S 00:51:30 10° ESE visible
16 May 12.7 02:40:52 10° W 02:55:38 52° SSW 03:06:28 33° SSE visible
16 May 13.5 05:06:01 10° W 05:18:58 24° SW 05:18:58 24° SW visible
17 May 12.2 00:39:11 10° W 00:50:43 71° SSW 01:11:17 10° ESE visible
17 May 12.9 03:00:32 10° W 03:15:11 45° SSW 03:24:02 33° S visible
17 May 13.7 05:27:58 10° WSW 05:36:32 17° SW 05:36:32 17° SW visible
18 May 12.3 00:58:31 10° W 01:10:19 64° SSW 01:29:08 13° ESE visible
18 May 13.1 03:20:25 10° W 03:34:42 37° SSW 03:41:39 31° S visible
18 May 13.9 05:52:56 10° WSW 05:54:10 11° WSW 05:54:10 11° WSW visible
19 May 12.4 01:17:53 10° W 01:29:54 57° SSW 01:46:49 17° SE visible
19 May 13.2 03:40:38 10° W 03:54:11 30° SW 03:59:20 27° SSW visible
20 May 12.6 01:37:22 10° W 01:49:27 49° SSW 02:04:33 19° SE visible
20 May 13.5 04:01:26 10° W 04:13:41 23° SW 04:17:04 22° SSW visible
21 May 12.8 01:56:58 10° W 02:09:01 42° SSW 02:22:21 20° SSE visible
21 May 13.7 04:23:21 10° WSW 04:33:12 17° SW 04:34:53 16° SW visible
22 May 13.0 02:16:48 10° W 02:28:35 34° SSW 02:40:13 20° SSE visible
22 May 13.9 04:49:03 10° SW 04:52:45 11° SW 04:52:45 11° SW visible
